Skip Page Navigation
NASA JPL Caltech
NASA Logo - Jet Propulsion Laboratory + View the NASA Portal
+ Center for Near-Earth Object Studies
JPL Home Earth Solar System Stars & Galaxies Technology
JPL Solar System Dynamics
BODIES ORBITS EPHEMERIDES TOOLS PHYSICAL DATA DISCOVERY FAQ SITE MAP
JPL Small-Body Database Browser
Search: [ help ]  
56977 (2000 SB173)
Classification: Main-belt Asteroid          SPK-ID: 2056977
Ephemeris | Orbit Diagram | Orbital Elements | Mission Design | Physical Parameters | Discovery Circumstances | Close-Approach Data ]

[ show orbit diagram ]
Orbital Elements at Epoch 2459000.5 (2020-May-31.0) TDB
Reference: JPL 18 (heliocentric ecliptic J2000)
 Element Value Uncertainty (1-sigma)   Units 
e .2211547023634724 6.2678e-08  
a 2.565211983029207 2.3053e-08 au
q 1.99790329042317 1.6203e-07 au
i 18.47529281934148 7.4597e-06 deg
node 255.0153003072955 2.1297e-05 deg
peri 345.2595872968959 2.9533e-05 deg
M 15.37346516474031 2.6815e-05 deg
tp 2458936.415561386612
(2020-Mar-27.91556139)
0.00011138 TDB
period 1500.663490865597
4.11
2.0229e-05
5.538e-08
d
yr
n .2398938883975571 3.2339e-09 deg/d
Q 3.132520675635244 2.8152e-08 au
  Orbit Determination Parameters
   # obs. used (total)      573  
   data-arc span      7231 days (19.80 yr)  
   first obs. used      1999-05-06  
   last obs. used      2019-02-21  
   planetary ephem.      DE431  
   SB-pert. ephem.      SB431-N16  
   condition code      0  
   norm. resid. RMS      .57762  
   source      ORB  
   producer      Otto Matic  
   solution date      2019-Jul-13 03:27:59  

Additional Information
 Earth MOID = .988835 au 
 Jupiter MOID = 1.93377 au 
 T_jup = 3.327 
[ show covariance matrix ]

Ephemeris | Orbit Diagram | Orbital Elements | Mission Design | Physical Parameters | Discovery Circumstances | Close-Approach Data ]

Physical Parameter Table
Parameter Symbol Value Units Sigma Reference Notes
absolute magnitude H 14.8   n/a MPO333308  
diameter diameter 6.069 km 0.283 urn:nasa:pds:neowise_diameters_albedos::2.0[mainbelt] (http://adsabs.harvard.edu/abs/2011ApJ...741...68M)  
geometric albedo albedo 0.069   0.007 urn:nasa:pds:neowise_diameters_albedos::2.0[mainbelt] (http://adsabs.harvard.edu/abs/2011ApJ...741...68M)  

56977 (2000 SB173)          Discovered 2000-Sep-28 by LINEAR at Socorro
Reference: 20030318/Numbers.arcLast Updated: 2004-04-19

[ show close-approach data ]
Alternate Designations
 2000 SB173 = 2001 XF95 
Ephemeris | Orbit Diagram | Orbital Elements | Mission Design | Physical Parameters | Discovery Circumstances | Close-Approach Data ]
ABOUT SSD CREDITS/AWARDS PRIVACY/COPYRIGHT GLOSSARY LINKS
FirstGov 2020-Jul-13 15:55 UT
(server date/time)  
NASA Home Page
Site Manager:   Ryan S. Park
Webmaster  Alan B. Chamberlin